Regional Weather Roundup
Issued by NWS Sterling, VA

Home | Current Version | Previous Version | Graphics & Text | Print | Product List | Glossary On
Versions: 1 2 3 4 5 6 7 8 9 10 11 12 13 14 15 16 17 18 19 20 21 22 23 24 25 26 27 28
000
ASUS41 KLWX 230611
RWRLWX

REGIONAL WEATHER ROUNDUP
NATIONAL WEATHER SERVICE BALTIMORE MD/WASHINGTON DC
100 AM EST THU NOV 23 2017

Note: "FAIR" indicates few or no clouds below 12,000 feet
with no significant weather and/or obstructions to visibility.
 TC=TEMPERATURE CELSIUS

 * =Non NWS site. Station does not report precipitation (e.g. rain,
    snow, etc.), thunder, or fog.

DCZ001-MDZ009-015-VAZ040>042-051-053>054-230700-
WASHINGTON METRO

CITY           SKY/WX    TMP DP  RH WIND       PRES   REMARKS
WASHINGTON NAT PTCLDY    36  24  62 NW7       30.18F
DULLES         CLEAR     33  23  66 N6        30.17F
ANDREWS AFB    CLEAR     33  23  66 NW3       30.16S
FT BELVOIR     CLEAR     33  24  69 CALM      30.18S
QUANTICO       CLEAR     35  25  66 W3        30.21S
COLLEGE PARK*  CLEAR     33  23  66 CALM      30.17S
LEESBURG*      CLEAR     34  27  75 N10       30.18S WCI  26
MANASSAS*      CLEAR     32  23  69 CALM      30.19F
GAITHERSBURG*  CLEAR     31  23  72 NW6       30.15F

$$

MDZ006>007-011-014-230700-
BALTIMORE METRO

CITY           SKY/WX    TMP DP  RH WIND       PRES   REMARKS
BWI AIRPORT    PTCLDY    32  24  72 CALM      30.16F
MD SCIENCE CTR   N/A     38  22  52 MISG      30.15F
MARTIN STATE   CLEAR     32  27  80 W7        30.18F
FORT MEADE*    CLEAR     32  27  80 CALM      30.19F

$$

MDZ012-015-019>023-230700-
MARYLAND EASTERN SHORE

CITY           SKY/WX    TMP DP  RH WIND       PRES   REMARKS
OCEAN CITY     CLOUDY    37  26  64 NW6       30.15R
SALISBURY      CLOUDY    35  26  69 NW5       30.15R
CAMBRIDGE*     CLEAR     39  27  60 N7        30.16R
EASTON*        CLEAR     37  26  62 N3        30.19S

$$

MDZ017>025-230700-
SOUTHERN MARYLAND

CITY           SKY/WX    TMP DP  RH WIND       PRES   REMARKS
PATUXENT RIVER NOT AVBL
ST INIGOES     CLOUDY    37  27  67 NW6       30.16F
LEONARDTOWN*   CLOUDY    32  27  80 W3        30.19R

$$

MDZ003>005-230700-
NORTH CENTRAL MARYLAND

CITY           SKY/WX    TMP DP  RH WIND       PRES   REMARKS
FREDERICK*     CLEAR     32  21  64 NW3       30.21F
HAGERSTOWN APT CLOUDY    35  23  61 NW7       30.17S
WESTMINSTER*   CLEAR     32  23  69 NW7       30.15S VSB 1

$$

MDZ501>502-230700-
WESTERN MARYLAND

CITY           SKY/WX    TMP DP  RH WIND       PRES   REMARKS
OAKLAND*       CLOUDY    23  18  80 W3        30.06S
CUMBERLAND*    CLOUDY    34  21  60 N6        30.24S

$$

VAZ025>031-230700-
SHENANDOAH VALLEY

CITY           SKY/WX    TMP DP  RH WIND       PRES   REMARKS
WINCHESTER*    CLEAR     28  21  74 MISG      30.17F
FRONT ROYAL*   CLEAR     28  21  74 MISG      30.16F
LURAY*         CLOUDY    28  25  86 S5        30.17F
NEW MARKET*    CLOUDY    24  21  87 CALM      30.16F
STAUNTON*      CLOUDY    22  19  88 CALM      30.18S
WAYNESBORO*    CLEAR     28  22  76 W3        30.15F

$$

WVZ021-048>050-054>055-230700-
EASTERN WEST VIRGINIA PANHANDLE

CITY           SKY/WX    TMP DP  RH WIND       PRES   REMARKS
MARTINSBURG    CLOUDY    33  19  56 NW7       30.17F
PETERSBURG*    CLOUDY    25  20  84 CALM      30.18F

$$

VAZ036>039-050-230700-
CENTRAL FOOTHILLS

CITY           SKY/WX    TMP DP  RH WIND       PRES   REMARKS
CHARLOTTESVILL CLEAR     36  22  56 VRB5      30.16F
CULPEPER*      CLEAR     31  21  68 CALM      30.19F
ORANGE*        CLOUDY    27  21  80 CALM      30.18S
GORDONSVILLE*  CLOUDY    26  24  89 CALM      30.17S
WARRENTON*     NOT AVBL

$$

VAZ055>057-230700-
NORTH AND CENTRAL PIEDMONT

CITY           SKY/WX    TMP DP  RH WIND       PRES   REMARKS
FREDERICKSBRG* CLEAR     31  26  80 CALM      30.19S
STAFFORD*      CLEAR     27  24  87 CALM      30.23S

$$

NCZ024-NYZ072-PAZ021-071-VAZ022-071-230700-
OTHER REGIONAL OBSERVATIONS

CITY           SKY/WX    TMP DP  RH WIND       PRES   REMARKS
NEW YORK CITY  CLEAR     34  19  54 NW9G20    30.10S WCI  27
PHILADELPHIA   CLEAR     35  21  56 NW6       30.13F
PITTSBURGH     CLOUDY    28  21  75 W3        30.17F
ROANOKE        CLOUDY    31  22  69 NW9       30.19F WCI  23
RICHMOND       CLOUDY    36  24  62 N7        30.18F
RALEIGH        CLOUDY    40  28  62 CALM      30.17S

$$

ANZ530>537-230700-
MARINE OBSERVATIONS

STATION/POSITION TIME  TEMP    WIND        PRES
                       AIR SEA DIR/SP/G
                 (UTC) (F)     (DEG/KT/KT) (MB)
THOMAS PT LIGHT  0600   38 52  320/ 10/ 12   N/A
BALT KEY BRIDGE  0536          340/ 13/ 15 1021.1F
COVE POINT       0536          350/ 15/ 19 1022.0S
LEWISETTA        0548      51  360/ 10/ 14 1021.7R
SOLOMONS ISLAND  0536      53  330/  8/ 13 1021.3F
PINEY POINT      0536          350/ 13/ 14   N/A

$$





USA.gov is the U.S. government's official web portal to all federal, state and local government web resources and services.